Simultaneous Nadir Overpasses (SNOs) Predictions

Prediction of SNOs between GOES-14 and NOAA-20 Satellite Orbit:

Table of predicted SNOs for the next 14.0 days since TLE Epoch: 7/31/2021
Index Date Time (GOES-14) GOES-14 Lat,Lon NOAA-20 Lat,Lon Distance(km) Time Diff (sec)
1 07/31/2021 08:11:54 -0.30,-104.13 -0.69,-102.27 211.48 80
2 08/01/2021 20:33:52 0.33,-104.36 -0.38,-107.60 369.02 80
3 08/02/2021 20:17:47 0.32,-104.37 0.59,-103.06 148.31 80
4 08/04/2021 08:39:35 -0.36,-104.16 0.56,-108.34 476.57 80
5 08/05/2021 08:18:10 -0.34,-104.15 -0.41,-103.80 39.64 80
6 08/07/2021 20:21:22 0.36,-104.37 0.32,-104.59 25.65 80
7 08/08/2021 20:05:18 0.35,-104.37 1.35,-100.06 491.58 80
8 08/10/2021 08:27:05 -0.38,-104.16 -0.14,-105.33 132.33 80
9 08/11/2021 08:05:40 -0.36,-104.16 -1.11,-100.79 383.96 80
10 08/12/2021 20:27:37 0.39,-104.36 -0.00,-106.11 199.23 80
11 08/13/2021 20:11:33 0.38,-104.37 1.03,-101.58 318.13 80
